sat.trackr.live / text

‹ back to catalog

STARLINK-1991

NORAD 47587 · 2021-009AR

PAYLOAD ACTIVE UNKNOWN

§ Identity

Operator
Country
US
Launch date
2021-02-04
Launch site
AFETR
Launch vehicle
Mass (kg)
RCS (m²)

Purposes: comms

External: N2YO · Heavens-Above · Gunter

§ Orbital elements

Epoch: 2026-06-28T02:49:53.935104Z

Period
87.42 min
Inclination
53.0188°
Eccentricity
0.0006975
Mean motion
16.47133044 rev/d
Perigee alt
142.3 km
Apogee alt
151.4 km
Semi-major
6,525.0 km
B*
2.3240e-4
RAAN
135.3951°
Arg perigee
222.2617°
Mean anomaly
137.7896°
Rev number
29,898

§ Raw data

STARLINK-19911 47587U 21009AR  26179.11798536  .12718798  12474-4  23240-3 0  99972 47587  53.0188 135.3951 0006975 222.2617 137.7896 16.47133044298984

JSON: /api/v1/satellites/47587 · /tle

For live sub-satellite position, see the globe view (requires WebGL).

§ Visibility from observer

Set your observer location to see the next 7 days of passes ≥ 10°. The values pass through the URL so the page stays shareable.

No JS? Fill the form by hand. The geolocation button needs JavaScript.